FW0344 Weather Reports


time (UTC)temp
C
wind
direction
speed
KPH
gust
KPH
rain 1hr
cm
rain 24hr
cm
rain mn
cm
humidity
%
barometer
mb
20260502163626 12 90 9.7 16.1 0.00 0.56 0.56 89 1011.2
20260502162704 12 97 9.7 17.7 0.00 0.56 0.56 89 1011.4
20260502161805 12 103 9.7 20.9 0.00 0.56 0.56 89 1011.4
20260502160905 12 98 9.7 17.7 0.00 0.56 0.56 89 1011.4
20260502151805 12 81 8.0 16.1 0.03 0.56 0.56 88 1012.0
20260502150904 12 84 6.4 12.9 0.05 0.56 0.56 87 1012.2
20260502123605 16 80 8.0 17.7 0.00 0.00 0.00 70 1013.6
20260502122705 16 89 9.7 17.7 0.00 0.00 0.00 70 1013.6
20260502121804 16 83 8.0 17.7 0.00 0.00 0.00 70 1013.9
20260502120925 17 76 8.0 14.5 0.00 0.00 0.00 71 1014.3
20260502115426 17 73 9.7 16.1 0.00 0.00 0.00 73 1014.7
20260502114504 17 79 8.0 14.5 0.00 0.00 0.00 72 1014.7
20260502113605 17 68 8.0 16.1 0.00 0.00 0.00 72 1014.8
20260502112705 17 85 9.7 14.5 0.00 0.00 0.00 71 1015.0
20260502111825 17 86 9.7 17.7 0.00 0.00 0.00 70 1015.1
20260502110905 17 76 9.7 17.7 0.00 0.00 0.00 74 1015.2
20260502110005 17 74 11.3 19.3 0.00 0.00 0.00 74 1015.2
20260502105405 17 66 11.3 20.9 0.00 0.00 0.00 74 1015.2
20260502104505 17 54 9.7 16.1 0.00 0.00 0.00 74 1015.4
20260502103625 17 59 9.7 17.7 0.00 0.00 0.00 77 1015.5
20260502102705 17 61 9.7 16.1 0.00 0.00 0.00 78 1015.6
20260502101804 16 66 9.7 16.1 0.00 0.00 0.00 79 1015.8
20260502100905 16 74 9.7 17.7 0.00 0.00 0.00 80 1016.0
20260502090926 15 58 6.4 12.9 0.00 0.00 0.00 83 1016.7
20260502070904 11 100 3.2 6.4 0.00 0.00 0.00 92 1017.4
20260502070003 11 88 3.2 6.4 0.00 0.00 0.00 92 1017.6
20260502065424 11 72 1.6 6.4 0.00 0.00 0.00 92 1017.5
20260502064504 11 134 1.6 4.8 0.00 0.00 0.00 92 1017.6
20260502063604 11 139 3.2 9.7 0.00 0.00 0.00 92 1017.5
20260502062705 11 105 0.0 3.2 0.00 0.00 0.00 92 1017.5
20260502061804 11 105 1.6 4.8 0.00 0.00 0.00 92 1017.4
20260502060904 11 117 0.0 4.8 0.00 0.00 0.00 92 1017.3
20260502060025 11 0 0.0 0.0 0.00 0.00 0.00 91 1017.3
20260502055403 11 167 0.0 1.6 0.00 0.00 0.00 91 1017.5
20260502054504 11 167 0.0 1.6 0.00 0.00 0.00 91 1017.4
20260502053604 10 0 0.0 0.0 0.00 0.00 0.00 91 1017.6
20260502052704 11 167 1.6 8.0 0.00 0.00 0.00 91 1017.6
20260502051807 11 143 1.6 8.0 0.00 0.00 0.00 91 1017.7
20260502050906 10 131 1.6 4.8 0.00 0.00 0.00 91 1017.5
20260502050027 10 0 0.0 0.0 0.00 0.00 0.00 91 1017.4
20260502045406 10 0 0.0 0.0 0.00 0.00 0.00 91 1017.5
20260502044528 10 131 0.0 1.6 0.00 0.00 0.00 91 1017.5
20260502043628 10 309 0.0 3.2 0.00 0.00 0.00 91 1017.5
20260502042706 11 0 0.0 0.0 0.00 0.00 0.00 91 1017.5
20260502041806 11 0 0.0 0.0 0.00 0.00 0.00 91 1017.6
20260502040907 11 309 0.0 4.8 0.00 0.00 0.00 91 1017.5
20260502040006 11 309 0.0 4.8 0.00 0.00 0.00 91 1017.5
20260502035407 11 0 0.0 0.0 0.00 0.00 0.00 90 1017.6
20260502034506 11 0 0.0 0.0 0.00 0.00 0.00 90 1017.8
20260502033607 11 0 0.0 0.0 0.00 0.00 0.00 90 1017.8
20260502032706 11 309 0.0 3.2 0.00 0.00 0.00 90 1017.8
20260502031805 11 306 1.6 3.2 0.00 0.00 0.00 90 1017.9
20260502030907 11 301 1.6 4.8 0.00 0.00 0.00 90 1017.9
20260502030006 11 307 1.6 4.8 0.00 0.00 0.00 90 1017.9
20260502025407 11 326 0.0 3.2 0.00 0.00 0.00 90 1017.9
20260502024528 11 200 0.0 3.2 0.00 0.00 0.00 90 1018.0
20260502023628 11 200 0.0 3.2 0.00 0.00 0.00 90 1018.1
20260502022726 11 200 1.6 3.2 0.00 0.00 0.00 90 1018.3
20260502021806 11 200 1.6 3.2 0.00 0.00 0.00 90 1018.4
20260502020907 11 200 1.6 4.8 0.00 0.00 0.00 90 1018.5
20260502020006 11 200 0.0 3.2 0.00 0.00 0.00 90 1018.5
20260502015405 11 200 0.0 3.2 0.00 0.00 0.00 90 1018.5
20260502014505 11 200 1.6 4.8 0.00 0.00 0.00 90 1018.6
20260502013606 11 210 3.2 6.4 0.00 0.00 0.00 90 1018.5
20260502012728 12 228 1.6 6.4 0.00 0.00 0.00 90 1018.7
20260502011806 12 228 1.6 4.8 0.00 0.00 0.00 90 1018.8
20260502010905 12 228 1.6 4.8 0.00 0.00 0.00 90 1018.9
20260502010006 12 228 0.0 3.2 0.00 0.00 0.00 90 1018.9
20260502005406 12 228 0.0 3.2 0.00 0.00 0.00 90 1018.9
20260502004505 12 228 1.6 4.8 0.00 0.00 0.00 90 1018.9
20260502003605 12 228 1.6 4.8 0.00 0.00 0.00 90 1019.0
20260502002705 12 244 3.2 9.7 0.00 0.00 0.00 90 1019.0
20260502001826 12 234 3.2 8.0 0.00 0.00 0.00 90 1019.1
20260502000905 12 257 1.6 3.2 0.00 0.00 0.00 90 1019.2
20260502000005 12 257 1.6 9.7 0.00 0.00 0.00 90 1019.2
20260501235426 12 257 3.2 9.7 0.00 0.00 0.00 90 1019.2
20260501234505 11 257 1.6 4.8 0.00 0.00 0.00 90 1019.3
20260501233605 11 257 1.6 6.4 0.00 0.00 0.00 90 1019.3
20260501232727 11 252 3.2 11.3 0.00 0.00 0.00 90 1019.4
20260501231826 11 235 4.8 9.7 0.00 0.00 0.00 90 1019.5
20260501230905 11 238 4.8 11.3 0.00 0.00 0.00 90 1019.6
20260501230006 11 251 4.8 11.3 0.00 0.00 0.00 90 1019.6
20260501225406 11 265 3.2 9.7 0.00 0.00 0.00 90 1019.7
20260501224506 11 256 6.4 16.1 0.00 0.00 0.00 90 1019.7
20260501223605 11 248 6.4 16.1 0.00 0.00 0.00 90 1019.7
20260501222706 11 255 4.8 11.3 0.00 0.00 0.00 90 1019.8
20260501221826 11 258 6.4 14.5 0.00 0.00 0.00 90 1019.8
20260501220906 11 259 8.0 17.7 0.00 0.00 0.00 89 1019.8
20260501215405 11 249 4.8 11.3 0.00 0.00 0.00 89 1019.8
20260501214505 11 247 4.8 14.5 0.00 0.00 0.00 89 1019.8
20260501213627 11 243 6.4 14.5 0.00 0.00 0.00 89 1019.7
20260501212705 11 248 4.8 14.5 0.00 0.00 0.00 88 1019.8
20260501211805 11 246 6.4 14.5 0.00 0.00 0.00 88 1019.8
20260501210906 11 257 3.2 8.0 0.00 0.00 0.00 88 1019.7
20260501210006 11 263 3.2 6.4 0.00 0.00 0.00 87 1019.6
20260501205427 11 255 4.8 8.0 0.00 0.00 0.00 87 1019.6
20260501204505 11 259 3.2 9.7 0.00 0.00 0.00 87 1019.7
20260501203606 11 260 3.2 8.0 0.00 0.00 0.00 86 1019.6
20260501202706 11 248 4.8 9.7 0.00 0.00 0.00 86 1019.5
20260501201805 11 246 4.8 8.0 0.00 0.00 0.00 86 1019.5
20260501200906 11 236 3.2 11.3 0.00 0.00 0.00 85 1019.4
20260501200006 11 240 4.8 9.7 0.00 0.00 0.00 85 1019.5
20260501195406 12 242 6.4 12.9 0.00 0.00 0.00 85 1019.5
20260501194506 12 244 6.4 12.9 0.00 0.00 0.00 84 1019.3
20260501193605 12 240 6.4 14.5 0.00 0.00 0.00 84 1019.3
20260501192706 12 238 6.4 14.5 0.00 0.00 0.00 84 1019.3
20260501191806 12 244 6.4 12.9 0.00 0.00 0.00 83 1019.2
20260501190905 12 232 6.4 12.9 0.00 0.00 0.00 82 1019.1
20260501190028 12 237 6.4 16.1 0.00 0.00 0.00 82 1019.0
20260501185406 12 240 8.0 16.1 0.00 0.00 0.00 82 1019.2
20260501184505 13 240 8.0 16.1 0.00 0.00 0.00 81 1019.2
20260501183605 13 235 8.0 16.1 0.00 0.00 0.00 80 1019.2
20260501182706 13 236 9.7 19.3 0.00 0.00 0.00 80 1019.1
20260501181826 13 242 8.0 17.7 0.00 0.00 0.00 79 1019.1
20260501180905 13 242 9.7 19.3 0.00 0.00 0.00 79 1019.1
20260501180028 14 243 11.3 20.9 0.00 0.00 0.00 79 1019.0
20260501175426 14 243 12.9 20.9 0.00 0.00 0.00 78 1019.0
20260501174504 14 237 9.7 19.3 0.00 0.00 0.00 78 1019.0
20260501173606 14 250 8.0 17.7 0.00 0.00 0.00 78 1018.9
20260501172704 14 231 9.7 19.3 0.00 0.00 0.00 78 1019.0
20260501171805 14 228 9.7 22.5 0.00 0.00 0.00 78 1019.1
20260501170925 14 224 11.3 19.3 0.00 0.00 0.00 78 1019.1
20260501170005 15 212 11.3 20.9 0.00 0.00 0.00 77 1019.2
20260501165404 15 223 11.3 19.3 0.00 0.00 0.00 77 1019.3
20260501164506 15 219 8.0 19.3 0.00 0.00 0.00 77 1019.3